Leuchars, United Kingdom

8:15 AM BST on August 23, 2017 (GMT +0100)
Leuchars Air Base

Weather History for EGQL - February, 2013

Change the Weather History Date:

Tuesday, February 26, 2013

  Actual Average Record
Temperature  
Mean Temperature 35 °F -  
Max Temperature 44 °F 46 °F 53 °F (2009)
Min Temperature 26 °F 35 °F 26 °F (2013)
Degree Days  
Heating Degree Days 30    
Moisture  
Dew Point 31 °F    
Average Humidity 88    
Maximum Humidity 100    
Minimum Humidity 61    
Precipitation  
Precipitation 0.00 in - - ()
Sea Level Pressure  
Sea Level Pressure 30.68 in    
Wind  
Wind Speed 3 mph ()    
Max Wind Speed 7 mph    
Max Gust Speed -    
Visibility 4.1 miles    
Events Fog    
Averages and records for this station are not official NWS values.
T = Trace of Precipitation, MM = Missing Value Source: Averaged Metar Reports

Daily Weather History Graph

Daily Weather History Graph

Search for Another Location

Airport or City:

Trip Planner

Search our weather history database for the weather conditions in past years. The results will help you decide how hot, cold, wet, or windy it might be!

Date:

Astronomy

Feb. 26, 2013 Rise Set
Actual Time 7:10 AM GMT 5:38 PM GMT
Civil Twilight 6:32 AM GMT 6:16 PM GMT
Nautical Twilight 5:49 AM GMT 7:00 PM GMT
Astronomical Twilight 5:05 AM GMT 7:44 PM GMT
Moon 7:01 PM GMT (2/26) 6:50 AM GMT (2/26)
Length of Visible Light 11h 43m
Length of Day
10h 27m
Full, 100% of the Moon is Illuminated
Feb 26
Full
Mar 4
Last Quarter
Mar 11
New
Mar 19
First Quarter
Mar 27
Full

Hourly Weather History & Observations

Time (GMT) Temp. Windchill Dew Point Humidity Pressure Visibility Wind Dir Wind Speed Gust Speed Precip Events Conditions
12:50 AM 28.4 °F - 26.6 °F 93% 30.66 in 3.1 mi West 2.3 mph - N/A Fog Fog
1:50 AM 28.4 °F - 26.6 °F 93% 30.66 in 3.7 mi West 2.3 mph - N/A   Scattered Clouds
2:50 AM 29 °F - 28 °F 93% 30.66 in 4 mi NW 3.5 mph - -   Mist
2:50 AM 28.4 °F 24.6 °F 28.4 °F 100% 30.66 in 4.3 mi NW 3.5 mph - N/A   Mostly Cloudy
3:50 AM 30.2 °F - 28.4 °F 93% 30.63 in 5.0 mi WNW 2.3 mph - N/A Fog Fog
4:50 AM 28.4 °F - 26.6 °F 93% 30.66 in 4.3 mi WNW 1.2 mph - N/A Fog Fog
5:50 AM 27 °F - 26 °F 94% 30.67 in 3 mi WNW 2.3 mph - - Fog Patches of Fog
5:50 AM 26.6 °F - 26.6 °F 100% 30.66 in 3.1 mi WNW 2.3 mph - N/A Fog Fog
6:17 AM 26.6 °F - 26.6 °F 100% 30.66 in 3.1 mi NW 1.2 mph - N/A Fog Shallow Fog
6:39 AM 28.4 °F - 26.6 °F 93% 30.66 in 3.7 mi NW 2.3 mph - N/A Fog Fog
6:50 AM 28.4 °F - 28.4 °F 100% 30.66 in 3.7 mi NW 2.3 mph - N/A Fog Fog
7:50 AM 28.4 °F - 28.4 °F 100% 30.69 in 6.2 mi NW 1.2 mph - N/A   Mostly Cloudy
8:50 AM 34 °F - 29 °F 77% 30.70 in 11 mi WNW 2.3 mph - -   Scattered Clouds
8:50 AM 33.8 °F - 30.2 °F 87% 30.69 in 6.2 mi WNW 2.3 mph - N/A   Mostly Cloudy
9:50 AM 37.4 °F - 33.8 °F 87% 30.69 in 6.2 mi NW 2.3 mph - N/A   Scattered Clouds
10:50 AM 41.0 °F 39.0 °F 33.8 °F 76% 30.69 in 6.2 mi North 3.5 mph - N/A   Scattered Clouds
11:50 AM 43 °F - 34 °F 61% 30.71 in 25 mi East 5.8 mph - -   Scattered Clouds
11:50 AM 42.8 °F 39.3 °F 33.8 °F 70% 30.69 in 6.2 mi East 5.8 mph - N/A   Scattered Clouds
12:50 PM 42.8 °F 38.6 °F 33.8 °F 70% 30.69 in 6.2 mi ENE 6.9 mph - N/A   Partly Cloudy
1:50 PM 44.6 °F 40.7 °F 33.8 °F 66% 30.69 in 6.2 mi ESE 6.9 mph - N/A   Partly Cloudy
2:50 PM 43 °F - 34 °F 62% 30.69 in 28 mi ESE 5.8 mph - -   Scattered Clouds
2:50 PM 42.8 °F 39.3 °F 33.8 °F 70% 30.69 in 6.2 mi ESE 5.8 mph - N/A   Partly Cloudy
3:50 PM 42.8 °F 40.1 °F 35.6 °F 76% 30.66 in 6.2 mi ESE 4.6 mph - N/A   Partly Cloudy
4:50 PM 41.0 °F 38.0 °F 37.4 °F 87% 30.66 in 6.2 mi East 4.6 mph - N/A   Partly Cloudy
5:50 PM 39 °F - 36 °F 83% 30.69 in 12 mi SE 3.5 mph - - Fog Patches of Fog
5:50 PM 39.2 °F 37.0 °F 35.6 °F 87% 30.69 in 6.2 mi SE 3.5 mph - N/A Fog Shallow Fog
6:44 PM 33.8 °F - 32.0 °F 93% 30.69 in 1.9 mi Calm Calm - N/A Fog Partly Cloudy
6:50 PM 33.8 °F - 32.0 °F 93% 30.69 in 1.9 mi SSW 1.2 mph - N/A Fog Partly Cloudy
7:02 PM 33.8 °F - 33.8 °F 100% 30.69 in 0.3 mi South 1.2 mph - N/A Fog Fog
7:50 PM 33.8 °F - 33.8 °F 100% 30.69 in 1.2 mi WNW 1.2 mph - N/A Fog Patches of Fog
8:50 PM 33 °F - 33 °F 99% 30.71 in 0 mi NW 2.3 mph - - Fog Partial Fog
8:50 PM 33.8 °F - 33.8 °F 100% 30.69 in 0.2 mi NW 2.3 mph - N/A Fog Fog
9:50 PM 32.0 °F - 30.2 °F 93% 30.69 in 0.3 mi NW 2.3 mph - N/A Fog Light Freezing Fog
10:50 PM 30.2 °F - 28.4 °F 93% 30.69 in 0.4 mi NW 2.3 mph - N/A Fog Light Freezing Fog
11:50 PM 30 °F - 29 °F 94% 30.71 in 0 mi Calm Calm - - Fog Fog
11:50 PM 30.2 °F - 28.4 °F 93% 30.69 in 0.3 mi Calm Calm - N/A Fog Light Freezing Fog